Location: Domont
(49.0278°N, 2.3264°E)
Time: 11:22:51
(UTC+00:00)

DX 1 - Pass Details

Date: 01 July 2022
Orbit: 617 x 629 km, 98.4° (Epoch: 10 August)

Event Time Altitude Azimuth Distance (km) Brightness Sun altitude
Rises 20:58:46 0° 16° (NNE) 2,933 ? -8.0°
Reaches altitude 10° 21:00:59 10° 19° (NNE) 2,019 ? -8.2°
Maximum altitude 21:05:22 66° 102° (ESE) 688 ? -8.6°
Drops below altitude 10° 21:09:41 10° 186° (S) 1,997 ? -9.1°
Enters shadow 21:11:19 - 188° (S) 2,664 ? -9.2°
